{"data":{"norad_id":66712,"intl_designator":"2025-276AY","name":"FLOCK 4H-9","alt_names":[],"object_type":"PAYLOAD","status":"ACTIVE","operator":null,"country":"US","launch_date":"2025-11-28","launch_site_code":"AFWTR","launch_vehicle":null,"mission":null,"orbit_class":"UNKNOWN","rcs_meters":null,"size_class":null,"mass_kg":null,"dimensions":null,"purposes":["earth_obs"],"wikipedia_slug":null,"has_3d_model":false,"image_url":null,"decayed_at":null,"tle_current":{"epoch":"2026-05-24T18:32:10.886208Z","epoch_age_seconds":90846,"freshness":"FRESH","line1":"1 66712U 25276AY  26144.77234822  .00005548  00000+0  25985-3 0  9999","line2":"2 66712  97.4220 218.8805 0004655  74.1676 286.0072 15.20107642 26877","mean_motion":15.20107642,"eccentricity":0.0004655,"inclination_deg":97.422,"raan_deg":218.8805,"arg_perigee_deg":74.1676,"mean_anomaly_deg":286.0072,"bstar":0.00025985,"rev_number":2687,"period_min":94.730133591421,"perigee_km":502.31129037612,"apogee_km":508.71997097528,"semimajor_km":6883.6526306757,"source":"CELESTRAK","updated_at":"2026-05-25T13:38:13.347155Z"}}}